Location: Härggis
(46.9540°N, 8.4897°E)
Time: 22:36:10
(UTC+00:00)

COSMOS 2428 - Pass Details

Date: 27 May 2022
Orbit: 846 x 855 km, 70.9° (Epoch: 02 July)

Event Time Altitude Azimuth Distance (km) Brightness Sun altitude
Exits shadow 00:59:55 10° 262° (W) 2,468 4.8 -18.4°
Maximum altitude 01:04:25 24° 314° (NW) 1,703 4.5 -18.1°
Drops below altitude 10° 01:08:57 10° 7° (N) 2,480 6.3 -17.7°
Sets 01:11:55 0° 22° (NNE) 3,419 7.6 -17.5°
